<?xml version="1.0" encoding="UTF-8" standalone="no" ?>
<gpx xmlns="http://www.topografix.com/GPX/1/1" xmlns:xsi="http://www.w3.org/2001/XMLSchema-instance" xsi:schemaLocation="http://www.topografix.com/GPX/1/1 http://www.topografix.com/GPX/1/1/gpx.xsd" version="1.1" creator="VisuGPX - https://www.visugpx.com">
  <metadata>
    <name>Traversée des Pyrénées 3/8</name>
    <desc><![CDATA[Partie 3/8 de la traversée des Pyrénées à ski.]]></desc>
  </metadata>
  <wpt lat="42.70045" lon="1.09901">
    <ele>1267.5</ele>
    <name><![CDATA[Alos de Isil]]></name>
    <type><![CDATA[user]]></type>
  </wpt>
  <wpt lat="42.66834" lon="1.00357">
    <ele>2334.7</ele>
    <name><![CDATA[Col Estany Pudo]]></name>
    <type><![CDATA[user]]></type>
  </wpt>
  <wpt lat="42.69903" lon="1.00893">
    <ele>2497.3671875</ele>
    <name><![CDATA[Coll Rosari]]></name>
    <type><![CDATA[user]]></type>
  </wpt>
  <wpt lat="42.70381" lon="1.16567">
    <ele>2542.86328125</ele>
    <name><![CDATA[Collada Mont Roig]]></name>
    <type><![CDATA[user]]></type>
  </wpt>
  <wpt lat="42.71179" lon="1.42851">
    <ele>1187.453125</ele>
    <name><![CDATA[L'Artigue]]></name>
    <type><![CDATA[user]]></type>
  </wpt>
  <wpt lat="42.71197" lon="1.27776">
    <ele>2852.0136</ele>
    <name><![CDATA[Pic de Certescan]]></name>
    <type><![CDATA[user]]></type>
  </wpt>
  <wpt lat="42.7012" lon="1.17614">
    <ele>2752.9536</ele>
    <name><![CDATA[Pic de la Gallina]]></name>
    <type><![CDATA[user]]></type>
  </wpt>
  <wpt lat="42.66386" lon="0.97978">
    <ele>2063.25390625</ele>
    <name><![CDATA[Port de la Bonaigua]]></name>
    <type><![CDATA[user]]></type>
  </wpt>
  <wpt lat="42.70308" lon="1.35079">
    <ele>2474.3</ele>
    <name><![CDATA[Port de Lartigue]]></name>
    <type><![CDATA[user]]></type>
  </wpt>
  <wpt lat="42.69695" lon="1.04158">
    <ele>2192.5</ele>
    <name><![CDATA[Ref Airoto]]></name>
    <type><![CDATA[user]]></type>
  </wpt>
  <wpt lat="42.70388" lon="1.3065">
    <ele>2232.6</ele>
    <name><![CDATA[Ref de Certescan]]></name>
    <type><![CDATA[user]]></type>
  </wpt>
  <wpt lat="42.70608" lon="1.18865">
    <ele>2295.4</ele>
    <name><![CDATA[Ref de Mont roig]]></name>
    <type><![CDATA[user]]></type>
  </wpt>
  <trk>
    <name><![CDATA[TPS3_J1 20 FEV 2017 07:47]]></name>
    <trkseg>
      <trkpt lat="42.71022" lon="1.4249">
        <ele>1064.32</ele>
        <time>2017-02-20T06:47:50Z</time>
      </trkpt>
      <trkpt lat="42.7102" lon="1.42489">
        <ele>1140.74</ele>
        <time>2017-02-20T06:48:26Z</time>
      </trkpt>
      <trkpt lat="42.71018" lon="1.42485">
        <ele>1187.37</ele>
        <time>2017-02-20T06:48:50Z</time>
      </trkpt>
      <trkpt lat="42.70983" lon="1.42367">
        <ele>1178.23</ele>
        <time>2017-02-20T06:54:42Z</time>
      </trkpt>
      <trkpt lat="42.70962" lon="1.42335">
        <ele>1178.23</ele>
        <time>2017-02-20T06:55:29Z</time>
      </trkpt>
      <trkpt lat="42.70953" lon="1.422">
        <ele>1177.27</ele>
        <time>2017-02-20T06:57:36Z</time>
      </trkpt>
      <trkpt lat="42.70943" lon="1.42145">
        <ele>1185.92</ele>
        <time>2017-02-20T06:59:34Z</time>
      </trkpt>
      <trkpt lat="42.70935" lon="1.4214">
        <ele>1180.16</ele>
        <time>2017-02-20T06:59:58Z</time>
      </trkpt>
      <trkpt lat="42.7094" lon="1.42128">
        <ele>1181.12</ele>
        <time>2017-02-20T07:00:17Z</time>
      </trkpt>
      <trkpt lat="42.7092" lon="1.42095">
        <ele>1214.76</ele>
        <time>2017-02-20T07:02:41Z</time>
      </trkpt>
      <trkpt lat="42.70921" lon="1.42095">
        <ele>1193.13</ele>
        <time>2017-02-20T07:03:08Z</time>
      </trkpt>
      <trkpt lat="42.70919" lon="1.42095">
        <ele>1203.71</ele>
        <time>2017-02-20T07:03:37Z</time>
      </trkpt>
      <trkpt lat="42.70919" lon="1.42095">
        <ele>1193.13</ele>
        <time>2017-02-20T07:03:38Z</time>
      </trkpt>
      <trkpt lat="42.7092" lon="1.42095">
        <ele>1198.42</ele>
        <time>2017-02-20T07:03:50Z</time>
      </trkpt>
      <trkpt lat="42.70921" lon="1.42094">
        <ele>1193.13</ele>
        <time>2017-02-20T07:03:51Z</time>
      </trkpt>
      <trkpt lat="42.70928" lon="1.42093">
        <ele>1192.65</ele>
        <time>2017-02-20T07:04:12Z</time>
      </trkpt>
      <trkpt lat="42.70934" lon="1.42091">
        <ele>1191.21</ele>
        <time>2017-02-20T07:04:31Z</time>
      </trkpt>
      <trkpt lat="42.70934" lon="1.42089">
        <ele>1192.17</ele>
        <time>2017-02-20T07:05:52Z</time>
      </trkpt>
      <trkpt lat="42.70979" lon="1.42126">
        <ele>1196.5</ele>
        <time>2017-02-20T07:07:56Z</time>
      </trkpt>
      <trkpt lat="42.70994" lon="1.42224">
        <ele>1201.3</ele>
        <time>2017-02-20T07:09:32Z</time>
      </trkpt>
      <trkpt lat="42.70989" lon="1.42235">
        <ele>1200.82</ele>
        <time>2017-02-20T07:09:37Z</time>
      </trkpt>
      <trkpt lat="42.7101" lon="1.42252">
        <ele>1201.3</ele>
        <time>2017-02-20T07:10:28Z</time>
      </trkpt>
      <trkpt lat="42.7101" lon="1.42287">
        <ele>1203.71</ele>
        <time>2017-02-20T07:11:25Z</time>
      </trkpt>
      <trkpt lat="42.71009" lon="1.42298">
        <ele>1204.67</ele>
        <time>2017-02-20T07:11:36Z</time>
      </trkpt>
      <trkpt lat="42.71024" lon="1.42314">
        <ele>1208.03</ele>
        <time>2017-02-20T07:12:10Z</time>
      </trkpt>
      <trkpt lat="42.71009" lon="1.4228">
        <ele>1213.32</ele>
        <time>2017-02-20T07:13:41Z</time>
      </trkpt>
      <trkpt lat="42.71013" lon="1.42248">
        <ele>1223.42</ele>
        <time>2017-02-20T07:15:02Z</time>
      </trkpt>
      <trkpt lat="42.71015" lon="1.42224">
        <ele>1227.74</ele>
        <time>2017-02-20T07:15:45Z</time>
      </trkpt>
      <trkpt lat="42.71027" lon="1.4216">
        <ele>1250.81</ele>
        <time>2017-02-20T07:19:21Z</time>
      </trkpt>
      <trkpt lat="42.71073" lon="1.41911">
        <ele>1307.05</ele>
        <time>2017-02-20T07:27:38Z</time>
      </trkpt>
      <trkpt lat="42.71097" lon="1.41859">
        <ele>1326.76</ele>
        <time>2017-02-20T07:30:37Z</time>
      </trkpt>
      <trkpt lat="42.71102" lon="1.41848">
        <ele>1329.64</ele>
        <time>2017-02-20T07:30:56Z</time>
      </trkpt>
      <trkpt lat="42.71119" lon="1.4178">
        <ele>1343.58</ele>
        <time>2017-02-20T07:33:01Z</time>
      </trkpt>
      <trkpt lat="42.71145" lon="1.41702">
        <ele>1356.08</ele>
        <time>2017-02-20T07:35:26Z</time>
      </trkpt>
      <trkpt lat="42.71155" lon="1.41606">
        <ele>1363.77</ele>
        <time>2017-02-20T07:37:40Z</time>
      </trkpt>
      <trkpt lat="42.71161" lon="1.416">
        <ele>1363.29</ele>
        <time>2017-02-20T07:37:58Z</time>
      </trkpt>
      <trkpt lat="42.71147" lon="1.41509">
        <ele>1375.3</ele>
        <time>2017-02-20T07:40:04Z</time>
      </trkpt>
      <trkpt lat="42.7117" lon="1.41408">
        <ele>1383.96</ele>
        <time>2017-02-20T07:42:15Z</time>
      </trkpt>
      <trkpt lat="42.71173" lon="1.4137">
        <ele>1385.4</ele>
        <time>2017-02-20T07:42:53Z</time>
      </trkpt>
      <trkpt lat="42.71204" lon="1.41258">
        <ele>1387.8</ele>
        <time>2017-02-20T07:44:44Z</time>
      </trkpt>
      <trkpt lat="42.71227" lon="1.41232">
        <ele>1391.65</ele>
        <time>2017-02-20T07:45:39Z</time>
      </trkpt>
      <trkpt lat="42.71245" lon="1.41213">
        <ele>1391.17</ele>
        <time>2017-02-20T07:46:29Z</time>
      </trkpt>
      <trkpt lat="42.71249" lon="1.41202">
        <ele>1392.13</ele>
        <time>2017-02-20T07:47:03Z</time>
      </trkpt>
      <trkpt lat="42.71247" lon="1.41165">
        <ele>1400.3</ele>
        <time>2017-02-20T07:48:22Z</time>
      </trkpt>
      <trkpt lat="42.71239" lon="1.41157">
        <ele>1400.3</ele>
        <time>2017-02-20T07:48:41Z</time>
      </trkpt>
      <trkpt lat="42.71243" lon="1.41072">
        <ele>1403.18</ele>
        <time>2017-02-20T07:50:29Z</time>
      </trkpt>
      <trkpt lat="42.7125" lon="1.41035">
        <ele>1401.74</ele>
        <time>2017-02-20T07:51:27Z</time>
      </trkpt>
      <trkpt lat="42.71257" lon="1.41002">
        <ele>1403.18</ele>
        <time>2017-02-20T07:51:53Z</time>
      </trkpt>
      <trkpt lat="42.71241" lon="1.40959">
        <ele>1409.91</ele>
        <time>2017-02-20T07:53:32Z</time>
      </trkpt>
      <trkpt lat="42.71232" lon="1.40923">
        <ele>1409.91</ele>
        <time>2017-02-20T07:54:00Z</time>
      </trkpt>
      <trkpt lat="42.71209" lon="1.40869">
        <ele>1414.24</ele>
        <time>2017-02-20T07:55:12Z</time>
      </trkpt>
      <trkpt lat="42.71169" lon="1.40772">
        <ele>1414.24</ele>
        <time>2017-02-20T07:57:24Z</time>
      </trkpt>
      <trkpt lat="42.71141" lon="1.40735">
        <ele>1410.87</ele>
        <time>2017-02-20T07:58:23Z</time>
      </trkpt>
      <trkpt lat="42.71135" lon="1.40706">
        <ele>1412.79</ele>
        <time>2017-02-20T07:59:03Z</time>
      </trkpt>
      <trkpt lat="42.71121" lon="1.40672">
        <ele>1410.87</ele>
        <time>2017-02-20T07:59:38Z</time>
      </trkpt>
      <trkpt lat="42.71115" lon="1.40611">
        <ele>1415.2</ele>
        <time>2017-02-20T08:00:55Z</time>
      </trkpt>
      <trkpt lat="42.71117" lon="1.40556">
        <ele>1413.28</ele>
        <time>2017-02-20T08:01:44Z</time>
      </trkpt>
      <trkpt lat="42.71111" lon="1.40542">
        <ele>1410.39</ele>
        <time>2017-02-20T08:02:08Z</time>
      </trkpt>
      <trkpt lat="42.71114" lon="1.4051">
        <ele>1409.43</ele>
        <time>2017-02-20T08:02:37Z</time>
      </trkpt>
      <trkpt lat="42.71121" lon="1.40473">
        <ele>1407.03</ele>
        <time>2017-02-20T08:03:12Z</time>
      </trkpt>
      <trkpt lat="42.71126" lon="1.40466">
        <ele>1405.1</ele>
        <time>2017-02-20T08:03:38Z</time>
      </trkpt>
      <trkpt lat="42.7113" lon="1.40449">
        <ele>1402.22</ele>
        <time>2017-02-20T08:03:55Z</time>
      </trkpt>
      <trkpt lat="42.71156" lon="1.4043">
        <ele>1401.26</ele>
        <time>2017-02-20T08:04:11Z</time>
      </trkpt>
      <trkpt lat="42.71176" lon="1.40363">
        <ele>1391.65</ele>
        <time>2017-02-20T08:06:12Z</time>
      </trkpt>
      <trkpt lat="42.71217" lon="1.40297">
        <ele>1394.05</ele>
        <time>2017-02-20T08:11:10Z</time>
      </trkpt>
      <trkpt lat="42.71226" lon="1.40277">
        <ele>1388.76</ele>
        <time>2017-02-20T08:12:31Z</time>
      </trkpt>
      <trkpt lat="42.71273" lon="1.40234">
        <ele>1399.82</ele>
        <time>2017-02-20T08:14:41Z</time>
      </trkpt>
      <trkpt lat="42.71268" lon="1.4021">
        <ele>1407.51</ele>
        <time>2017-02-20T08:15:52Z</time>
      </trkpt>
      <trkpt lat="42.71327" lon="1.40168">
        <ele>1423.85</ele>
        <time>2017-02-20T08:18:31Z</time>
      </trkpt>
      <trkpt lat="42.71328" lon="1.40167">
        <ele>1425.77</ele>
        <time>2017-02-20T08:18:50Z</time>
      </trkpt>
      <trkpt lat="42.71335" lon="1.40154">
        <ele>1427.7</ele>
        <time>2017-02-20T08:19:07Z</time>
      </trkpt>
      <trkpt lat="42.71343" lon="1.40141">
        <ele>1431.54</ele>
        <time>2017-02-20T08:19:42Z</time>
      </trkpt>
      <trkpt lat="42.71402" lon="1.40073">
        <ele>1451.25</ele>
        <time>2017-02-20T08:22:53Z</time>
      </trkpt>
      <trkpt lat="42.71456" lon="1.40015">
        <ele>1469.03</ele>
        <time>2017-02-20T08:25:50Z</time>
      </trkpt>
      <trkpt lat="42.71477" lon="1.39977">
        <ele>1476.72</ele>
        <time>2017-02-20T08:27:21Z</time>
      </trkpt>
      <trkpt lat="42.71499" lon="1.39891">
        <ele>1486.34</ele>
        <time>2017-02-20T08:29:02Z</time>
      </trkpt>
      <trkpt lat="42.71499" lon="1.39891">
        <ele>1489.7</ele>
        <time>2017-02-20T08:29:33Z</time>
      </trkpt>
      <trkpt lat="42.71503" lon="1.39886">
        <ele>1490.18</ele>
        <time>2017-02-20T08:29:54Z</time>
      </trkpt>
      <trkpt lat="42.71512" lon="1.39877">
        <ele>1492.58</ele>
        <time>2017-02-20T08:30:33Z</time>
      </trkpt>
      <trkpt lat="42.71518" lon="1.39874">
        <ele>1494.51</ele>
        <time>2017-02-20T08:30:51Z</time>
      </trkpt>
      <trkpt lat="42.7154" lon="1.39865">
        <ele>1498.35</ele>
        <time>2017-02-20T08:31:25Z</time>
      </trkpt>
      <trkpt lat="42.7157" lon="1.39851">
        <ele>1500.76</ele>
        <time>2017-02-20T08:31:45Z</time>
      </trkpt>
      <trkpt lat="42.71545" lon="1.39832">
        <ele>1507.97</ele>
        <time>2017-02-20T08:32:52Z</time>
      </trkpt>
      <trkpt lat="42.71557" lon="1.39823">
        <ele>1514.21</ele>
        <time>2017-02-20T08:33:47Z</time>
      </trkpt>
      <trkpt lat="42.71574" lon="1.39825">
        <ele>1516.14</ele>
        <time>2017-02-20T08:34:24Z</time>
      </trkpt>
      <trkpt lat="42.71559" lon="1.39803">
        <ele>1521.9</ele>
        <time>2017-02-20T08:35:08Z</time>
      </trkpt>
      <trkpt lat="42.71569" lon="1.39797">
        <ele>1525.27</ele>
        <time>2017-02-20T08:35:39Z</time>
      </trkpt>
      <trkpt lat="42.71533" lon="1.39778">
        <ele>1538.73</ele>
        <time>2017-02-20T08:38:12Z</time>
      </trkpt>
      <trkpt lat="42.71539" lon="1.39771">
        <ele>1543.53</ele>
        <time>2017-02-20T08:38:47Z</time>
      </trkpt>
      <trkpt lat="42.71547" lon="1.39764">
        <ele>1545.94</ele>
        <time>2017-02-20T08:39:02Z</time>
      </trkpt>
      <trkpt lat="42.71552" lon="1.39762">
        <ele>1545.94</ele>
        <time>2017-02-20T08:39:17Z</time>
      </trkpt>
      <trkpt lat="42.71546" lon="1.39748">
        <ele>1556.03</ele>
        <time>2017-02-20T08:42:00Z</time>
      </trkpt>
      <trkpt lat="42.71539" lon="1.39737">
        <ele>1560.36</ele>
        <time>2017-02-20T08:42:39Z</time>
      </trkpt>
      <trkpt lat="42.71564" lon="1.39728">
        <ele>1569.49</ele>
        <time>2017-02-20T08:44:04Z</time>
      </trkpt>
      <trkpt lat="42.71551" lon="1.39713">
        <ele>1577.66</ele>
        <time>2017-02-20T08:45:21Z</time>
      </trkpt>
      <trkpt lat="42.7158" lon="1.397">
        <ele>1589.2</ele>
        <time>2017-02-20T08:46:44Z</time>
      </trkpt>
      <trkpt lat="42.7158" lon="1.39699">
        <ele>1589.2</ele>
        <time>2017-02-20T08:47:10Z</time>
      </trkpt>
      <trkpt lat="42.71529" lon="1.39669">
        <ele>1605.06</ele>
        <time>2017-02-20T08:49:31Z</time>
      </trkpt>
      <trkpt lat="42.71525" lon="1.39639">
        <ele>1615.15</ele>
        <time>2017-02-20T08:50:54Z</time>
      </trkpt>
      <trkpt lat="42.71524" lon="1.39631">
        <ele>1616.59</ele>
        <time>2017-02-20T08:51:09Z</time>
      </trkpt>
      <trkpt lat="42.71521" lon="1.3961">
        <ele>1622.36</ele>
        <time>2017-02-20T08:52:03Z</time>
      </trkpt>
      <trkpt lat="42.71513" lon="1.39561">
        <ele>1634.86</ele>
        <time>2017-02-20T08:59:33Z</time>
      </trkpt>
      <trkpt lat="42.71509" lon="1.39543">
        <ele>1639.19</ele>
        <time>2017-02-20T09:00:36Z</time>
      </trkpt>
      <trkpt lat="42.71497" lon="1.39443">
        <ele>1654.57</ele>
        <time>2017-02-20T09:03:15Z</time>
      </trkpt>
      <trkpt lat="42.71479" lon="1.39433">
        <ele>1660.81</ele>
        <time>2017-02-20T09:04:24Z</time>
      </trkpt>
      <trkpt lat="42.71464" lon="1.39411">
        <ele>1667.54</ele>
        <time>2017-02-20T09:05:18Z</time>
      </trkpt>
      <trkpt lat="42.71458" lon="1.39403">
        <ele>1669.95</ele>
        <time>2017-02-20T09:05:36Z</time>
      </trkpt>
      <trkpt lat="42.71457" lon="1.39401">
        <ele>1664.66</ele>
        <time>2017-02-20T09:05:41Z</time>
      </trkpt>
      <trkpt lat="42.71455" lon="1.39399">
        <ele>1674.75</ele>
        <time>2017-02-20T09:05:44Z</time>
      </trkpt>
      <trkpt lat="42.71454" lon="1.39399">
        <ele>1655.05</ele>
        <time>2017-02-20T09:05:46Z</time>
      </trkpt>
      <trkpt lat="42.71454" lon="1.39399">
        <ele>1673.79</ele>
        <time>2017-02-20T09:05:47Z</time>
      </trkpt>
      <trkpt lat="42.71453" lon="1.39399">
        <ele>1672.35</ele>
        <time>2017-02-20T09:05:50Z</time>
      </trkpt>
      <trkpt lat="42.71453" lon="1.39399">
        <ele>1664.18</ele>
        <time>2017-02-20T09:05:51Z</time>
      </trkpt>
      <trkpt lat="42.71452" lon="1.39399">
        <ele>1671.87</ele>
        <time>2017-02-20T09:05:52Z</time>
      </trkpt>
      <trkpt lat="42.7145" lon="1.39396">
        <ele>1671.39</ele>
        <time>2017-02-20T09:05:58Z</time>
      </trkpt>
      <trkpt lat="42.71442" lon="1.39385">
        <ele>1672.83</ele>
        <time>2017-02-20T09:06:18Z</time>
      </trkpt>
      <trkpt lat="42.71423" lon="1.39336">
        <ele>1673.31</ele>
        <time>2017-02-20T09:07:13Z</time>
      </trkpt>
      <trkpt lat="42.71387" lon="1.39234">
        <ele>1684.37</ele>
        <time>2017-02-20T09:09:17Z</time>
      </trkpt>
      <trkpt lat="42.71348" lon="1.39157">
        <ele>1686.29</ele>
        <time>2017-02-20T09:10:47Z</time>
      </trkpt>
      <trkpt lat="42.71386" lon="1.38954">
        <ele>1694.46</ele>
        <time>2017-02-20T09:14:13Z</time>
      </trkpt>
      <trkpt lat="42.71363" lon="1.38877">
        <ele>1698.31</ele>
        <time>2017-02-20T09:15:38Z</time>
      </trkpt>
      <trkpt lat="42.71361" lon="1.38851">
        <ele>1697.34</ele>
        <time>2017-02-20T09:15:55Z</time>
      </trkpt>
      <trkpt lat="42.7137" lon="1.38712">
        <ele>1705.04</ele>
        <time>2017-02-20T09:18:28Z</time>
      </trkpt>
      <trkpt lat="42.71303" lon="1.38396">
        <ele>1746.37</ele>
        <time>2017-02-20T09:25:13Z</time>
      </trkpt>
      <trkpt lat="42.71271" lon="1.38376">
        <ele>1755.99</ele>
        <time>2017-02-20T09:26:29Z</time>
      </trkpt>
      <trkpt lat="42.71266" lon="1.38353">
        <ele>1760.79</ele>
        <time>2017-02-20T09:27:07Z</time>
      </trkpt>
      <trkpt lat="42.71266" lon="1.38351">
        <ele>1764.16</ele>
        <time>2017-02-20T09:27:24Z</time>
      </trkpt>
      <trkpt lat="42.71266" lon="1.38346">
        <ele>1766.08</ele>
        <time>2017-02-20T09:27:43Z</time>
      </trkpt>
      <trkpt lat="42.7127" lon="1.38337">
        <ele>1768.48</ele>
        <time>2017-02-20T09:27:59Z</time>
      </trkpt>
      <trkpt lat="42.71268" lon="1.38324">
        <ele>1768.48</ele>
        <time>2017-02-20T09:28:14Z</time>
      </trkpt>
      <trkpt lat="42.71264" lon="1.38303">
        <ele>1778.1</ele>
        <time>2017-02-20T09:29:39Z</time>
      </trkpt>
      <trkpt lat="42.71265" lon="1.38293">
        <ele>1780.02</ele>
        <time>2017-02-20T09:29:58Z</time>
      </trkpt>
      <trkpt lat="42.71239" lon="1.38218">
        <ele>1791.07</ele>
        <time>2017-02-20T09:31:33Z</time>
      </trkpt>
      <trkpt lat="42.71238" lon="1.38211">
        <ele>1789.15</ele>
        <time>2017-02-20T09:32:01Z</time>
      </trkpt>
      <trkpt lat="42.71236" lon="1.38209">
        <ele>1789.63</ele>
        <time>2017-02-20T09:32:05Z</time>
      </trkpt>
      <trkpt lat="42.71138" lon="1.38008">
        <ele>1816.55</ele>
        <time>2017-02-20T09:37:26Z</time>
      </trkpt>
      <trkpt lat="42.71124" lon="1.37989">
        <ele>1817.51</ele>
        <time>2017-02-20T09:38:01Z</time>
      </trkpt>
      <trkpt lat="42.71098" lon="1.37954">
        <ele>1824.72</ele>
        <time>2017-02-20T09:39:04Z</time>
      </trkpt>
      <trkpt lat="42.71103" lon="1.37947">
        <ele>1827.6</ele>
        <time>2017-02-20T09:39:21Z</time>
      </trkpt>
      <trkpt lat="42.71079" lon="1.37872">
        <ele>1841.06</ele>
        <time>2017-02-20T09:41:47Z</time>
      </trkpt>
      <trkpt lat="42.71015" lon="1.37776">
        <ele>1866.06</ele>
        <time>2017-02-20T09:45:15Z</time>
      </trkpt>
      <trkpt lat="42.70987" lon="1.37676">
        <ele>1880.48</ele>
        <time>2017-02-20T09:47:44Z</time>
      </trkpt>
      <trkpt lat="42.70977" lon="1.37631">
        <ele>1882.88</ele>
        <time>2017-02-20T09:48:38Z</time>
      </trkpt>
      <trkpt lat="42.70968" lon="1.3753">
        <ele>1886.24</ele>
        <time>2017-02-20T09:50:00Z</time>
      </trkpt>
      <trkpt lat="42.70927" lon="1.37429">
        <ele>1893.45</ele>
        <time>2017-02-20T09:51:48Z</time>
      </trkpt>
      <trkpt lat="42.70919" lon="1.37335">
        <ele>1910.76</ele>
        <time>2017-02-20T09:54:06Z</time>
      </trkpt>
      <trkpt lat="42.70933" lon="1.37317">
        <ele>1919.89</ele>
        <time>2017-02-20T09:55:10Z</time>
      </trkpt>
      <trkpt lat="42.70935" lon="1.37317">
        <ele>1919.89</ele>
        <time>2017-02-20T09:55:14Z</time>
      </trkpt>
      <trkpt lat="42.70906" lon="1.37189">
        <ele>1940.08</ele>
        <time>2017-02-20T09:58:19Z</time>
      </trkpt>
      <trkpt lat="42.70868" lon="1.37138">
        <ele>1954.02</ele>
        <time>2017-02-20T10:00:26Z</time>
      </trkpt>
      <trkpt lat="42.7088" lon="1.37112">
        <ele>1961.71</ele>
        <time>2017-02-20T10:01:31Z</time>
      </trkpt>
      <trkpt lat="42.7083" lon="1.3708">
        <ele>1978.53</ele>
        <time>2017-02-20T10:03:39Z</time>
      </trkpt>
      <trkpt lat="42.70824" lon="1.37049">
        <ele>1989.1</ele>
        <time>2017-02-20T10:05:04Z</time>
      </trkpt>
      <trkpt lat="42.70817" lon="1.37022">
        <ele>2002.08</ele>
        <time>2017-02-20T10:07:51Z</time>
      </trkpt>
      <trkpt lat="42.70812" lon="1.37015">
        <ele>1995.35</ele>
        <time>2017-02-20T10:12:38Z</time>
      </trkpt>
      <trkpt lat="42.70789" lon="1.36965">
        <ele>2003.04</ele>
        <time>2017-02-20T10:14:00Z</time>
      </trkpt>
      <trkpt lat="42.70736" lon="1.36847">
        <ele>2034.77</ele>
        <time>2017-02-20T10:18:09Z</time>
      </trkpt>
      <trkpt lat="42.70711" lon="1.36794">
        <ele>2045.82</ele>
        <time>2017-02-20T10:19:41Z</time>
      </trkpt>
      <trkpt lat="42.70673" lon="1.36751">
        <ele>2056.88</ele>
        <time>2017-02-20T10:21:21Z</time>
      </trkpt>
      <trkpt lat="42.70632" lon="1.36663">
        <ele>2071.3</ele>
        <time>2017-02-20T10:23:36Z</time>
      </trkpt>
      <trkpt lat="42.70605" lon="1.36597">
        <ele>2074.66</ele>
        <time>2017-02-20T10:24:36Z</time>
      </trkpt>
      <trkpt lat="42.70581" lon="1.36583">
        <ele>2087.64</ele>
        <time>2017-02-20T10:25:24Z</time>
      </trkpt>
      <trkpt lat="42.70581" lon="1.36583">
        <ele>2066.49</ele>
        <time>2017-02-20T10:25:34Z</time>
      </trkpt>
      <trkpt lat="42.70581" lon="1.36583">
        <ele>2081.87</ele>
        <time>2017-02-20T10:25:35Z</time>
      </trkpt>
      <trkpt lat="42.70557" lon="1.36518">
        <ele>2082.35</ele>
        <time>2017-02-20T10:27:14Z</time>
      </trkpt>
      <trkpt lat="42.70454" lon="1.36325">
        <ele>2103.5</ele>
        <time>2017-02-20T10:32:11Z</time>
      </trkpt>
      <trkpt lat="42.70439" lon="1.36314">
        <ele>2104.46</ele>
        <time>2017-02-20T10:32:30Z</time>
      </trkpt>
      <trkpt lat="42.70427" lon="1.36208">
        <ele>2125.61</ele>
        <time>2017-02-20T10:35:57Z</time>
      </trkpt>
      <trkpt lat="42.70421" lon="1.36135">
        <ele>2133.3</ele>
        <time>2017-02-20T10:37:04Z</time>
      </trkpt>
      <trkpt lat="42.70428" lon="1.36132">
        <ele>2136.67</ele>
        <time>2017-02-20T10:37:37Z</time>
      </trkpt>
      <trkpt lat="42.70415" lon="1.36121">
        <ele>2144.84</ele>
        <time>2017-02-20T10:38:53Z</time>
      </trkpt>
      <trkpt lat="42.70411" lon="1.3611">
        <ele>2151.57</ele>
        <time>2017-02-20T10:40:04Z</time>
      </trkpt>
      <trkpt lat="42.70415" lon="1.36108">
        <ele>2153.97</ele>
        <time>2017-02-20T10:41:07Z</time>
      </trkpt>
      <trkpt lat="42.70413" lon="1.36105">
        <ele>2155.89</ele>
        <time>2017-02-20T10:41:22Z</time>
      </trkpt>
      <trkpt lat="42.70418" lon="1.36094">
        <ele>2158.78</ele>
        <time>2017-02-20T10:41:52Z</time>
      </trkpt>
      <trkpt lat="42.70397" lon="1.36031">
        <ele>2182.33</ele>
        <time>2017-02-20T10:44:51Z</time>
      </trkpt>
      <trkpt lat="42.70341" lon="1.3583">
        <ele>2215.98</ele>
        <time>2017-02-20T10:51:12Z</time>
      </trkpt>
      <trkpt lat="42.70324" lon="1.35783">
        <ele>2235.68</ele>
        <time>2017-02-20T10:54:02Z</time>
      </trkpt>
      <trkpt lat="42.70282" lon="1.35744">
        <ele>2237.13</ele>
        <time>2017-02-20T10:54:14Z</time>
      </trkpt>
      <trkpt lat="42.70295" lon="1.35738">
        <ele>2239.05</ele>
        <time>2017-02-20T10:54:30Z</time>
      </trkpt>
      <trkpt lat="42.70287" lon="1.35719">
        <ele>2244.82</ele>
        <time>2017-02-20T10:55:30Z</time>
      </trkpt>
      <trkpt lat="42.70289" lon="1.35707">
        <ele>2248.66</ele>
        <time>2017-02-20T10:56:08Z</time>
      </trkpt>
      <trkpt lat="42.70286" lon="1.35699">
        <ele>2253.47</ele>
        <time>2017-02-20T10:56:48Z</time>
      </trkpt>
      <trkpt lat="42.70272" lon="1.35687">
        <ele>2256.35</ele>
        <time>2017-02-20T10:57:12Z</time>
      </trkpt>
      <trkpt lat="42.70277" lon="1.35667">
        <ele>2261.64</ele>
        <time>2017-02-20T10:58:00Z</time>
      </trkpt>
      <trkpt lat="42.70291" lon="1.35665">
        <ele>2266.45</ele>
        <time>2017-02-20T10:58:48Z</time>
      </trkpt>
      <trkpt lat="42.70303" lon="1.35656">
        <ele>2275.1</ele>
        <time>2017-02-20T11:00:07Z</time>
      </trkpt>
      <trkpt lat="42.70295" lon="1.35585">
        <ele>2291.92</ele>
        <time>2017-02-20T11:03:07Z</time>
      </trkpt>
      <trkpt lat="42.70305" lon="1.35569">
        <ele>2295.28</ele>
        <time>2017-02-20T11:03:53Z</time>
      </trkpt>
      <trkpt lat="42.70316" lon="1.35528">
        <ele>2302.49</ele>
        <time>2017-02-20T11:05:39Z</time>
      </trkpt>
      <trkpt lat="42.70306" lon="1.35475">
        <ele>2311.63</ele>
        <time>2017-02-20T11:07:24Z</time>
      </trkpt>
      <trkpt lat="42.70335" lon="1.35472">
        <ele>2317.4</ele>
        <time>2017-02-20T11:08:23Z</time>
      </trkpt>
      <trkpt lat="42.7033" lon="1.35459">
        <ele>2320.76</ele>
        <time>2017-02-20T11:08:48Z</time>
      </trkpt>
      <trkpt lat="42.70333" lon="1.35448">
        <ele>2322.68</ele>
        <time>2017-02-20T11:09:09Z</time>
      </trkpt>
      <trkpt lat="42.70347" lon="1.35448">
        <ele>2325.57</ele>
        <time>2017-02-20T11:09:42Z</time>
      </trkpt>
      <trkpt lat="42.70359" lon="1.35409">
        <ele>2339.99</ele>
        <time>2017-02-20T11:11:48Z</time>
      </trkpt>
      <trkpt lat="42.70363" lon="1.35405">
        <ele>2342.87</ele>
        <time>2017-02-20T11:12:16Z</time>
      </trkpt>
      <trkpt lat="42.7036" lon="1.35397">
        <ele>2343.83</ele>
        <time>2017-02-20T11:12:33Z</time>
      </trkpt>
      <trkpt lat="42.70369" lon="1.35392">
        <ele>2347.2</ele>
        <time>2017-02-20T11:13:04Z</time>
      </trkpt>
      <trkpt lat="42.70367" lon="1.35369">
        <ele>2352</ele>
        <time>2017-02-20T11:13:47Z</time>
      </trkpt>
      <trkpt lat="42.70351" lon="1.35367">
        <ele>2357.77</ele>
        <time>2017-02-20T11:14:40Z</time>
      </trkpt>
      <trkpt lat="42.70341" lon="1.35363">
        <ele>2361.14</ele>
        <time>2017-02-20T11:15:12Z</time>
      </trkpt>
      <trkpt lat="42.70332" lon="1.35356">
        <ele>2363.06</ele>
        <time>2017-02-20T11:15:40Z</time>
      </trkpt>
      <trkpt lat="42.70327" lon="1.35336">
        <ele>2369.31</ele>
        <time>2017-02-20T11:16:43Z</time>
      </trkpt>
      <trkpt lat="42.70322" lon="1.35327">
        <ele>2372.67</ele>
        <time>2017-02-20T11:17:18Z</time>
      </trkpt>
      <trkpt lat="42.70342" lon="1.35305">
        <ele>2387.09</ele>
        <time>2017-02-20T11:20:23Z</time>
      </trkpt>
      <trkpt lat="42.70332" lon="1.35294">
        <ele>2392.38</ele>
        <time>2017-02-20T11:21:26Z</time>
      </trkpt>
      <trkpt lat="42.70338" lon="1.35282">
        <ele>2398.15</ele>
        <time>2017-02-20T11:22:46Z</time>
      </trkpt>
      <trkpt lat="42.70303" lon="1.3525">
        <ele>2411.12</ele>
        <time>2017-02-20T11:25:06Z</time>
      </trkpt>
      <trkpt lat="42.70305" lon="1.35238">
        <ele>2417.37</ele>
        <time>2017-02-20T11:26:26Z</time>
      </trkpt>
      <trkpt lat="42.70298" lon="1.35222">
        <ele>2423.62</ele>
        <time>2017-02-20T11:27:29Z</time>
      </trkpt>
      <trkpt lat="42.70297" lon="1.35216">
        <ele>2427.95</ele>
        <time>2017-02-20T11:28:39Z</time>
      </trkpt>
      <trkpt lat="42.7029" lon="1.35208">
        <ele>2430.35</ele>
        <time>2017-02-20T11:29:08Z</time>
      </trkpt>
      <trkpt lat="42.70297" lon="1.35193">
        <ele>2435.64</ele>
        <time>2017-02-20T11:30:12Z</time>
      </trkpt>
      <trkpt lat="42.70285" lon="1.35183">
        <ele>2440.92</ele>
        <time>2017-02-20T11:31:25Z</time>
      </trkpt>
      <trkpt lat="42.70302" lon="1.35163">
        <ele>2449.1</ele>
        <time>2017-02-20T11:32:48Z</time>
      </trkpt>
      <trkpt lat="42.70284" lon="1.35145">
        <ele>2453.9</ele>
        <time>2017-02-20T11:33:53Z</time>
      </trkpt>
      <trkpt lat="42.70308" lon="1.35134">
        <ele>2462.55</ele>
        <time>2017-02-20T11:35:34Z</time>
      </trkpt>
      <trkpt lat="42.70305" lon="1.35098">
        <ele>2472.65</ele>
        <time>2017-02-20T11:37:33Z</time>
      </trkpt>
      <trkpt lat="42.70315" lon="1.35084">
        <ele>2475.05</ele>
        <time>2017-02-20T11:50:17Z</time>
      </trkpt>
      <trkpt lat="42.70318" lon="1.3507">
        <ele>2471.21</ele>
        <time>2017-02-20T11:53:30Z</time>
      </trkpt>
      <trkpt lat="42.70315" lon="1.3504">
        <ele>2464.48</ele>
        <time>2017-02-20T11:53:41Z</time>
      </trkpt>
      <trkpt lat="42.7031" lon="1.35027">
        <ele>2460.63</ele>
        <time>2017-02-20T11:53:44Z</time>
      </trkpt>
      <trkpt lat="42.70301" lon="1.34986">
        <ele>2450.06</ele>
        <time>2017-02-20T11:53:52Z</time>
      </trkpt>
      <trkpt lat="42.70298" lon="1.34974">
        <ele>2447.17</ele>
        <time>2017-02-20T11:53:54Z</time>
      </trkpt>
      <trkpt lat="42.70308" lon="1.34954">
        <ele>2457.75</ele>
        <time>2017-02-20T11:54:23Z</time>
      </trkpt>
      <trkpt lat="42.70339" lon="1.34895">
        <ele>2419.3</ele>
        <time>2017-02-20T11:55:41Z</time>
      </trkpt>
      <trkpt lat="42.70385" lon="1.34873">
        <ele>2401.51</ele>
        <time>2017-02-20T11:55:59Z</time>
      </trkpt>
      <trkpt lat="42.70398" lon="1.34862">
        <ele>2393.82</ele>
        <time>2017-02-20T11:56:03Z</time>
      </trkpt>
      <trkpt lat="42.70408" lon="1.34866">
        <ele>2393.82</ele>
        <time>2017-02-20T11:56:05Z</time>
      </trkpt>
      <trkpt lat="42.70426" lon="1.3484">
        <ele>2386.61</ele>
        <time>2017-02-20T11:56:14Z</time>
      </trkpt>
      <trkpt lat="42.70407" lon="1.34818">
        <ele>2382.28</ele>
        <time>2017-02-20T11:56:32Z</time>
      </trkpt>
      <trkpt lat="42.70407" lon="1.34817">
        <ele>2372.19</ele>
        <time>2017-02-20T11:56:41Z</time>
      </trkpt>
      <trkpt lat="42.70407" lon="1.34817">
        <ele>2382.76</ele>
        <time>2017-02-20T11:56:42Z</time>
      </trkpt>
      <trkpt lat="42.70407" lon="1.34817">
        <ele>2381.8</ele>
        <time>2017-02-20T11:56:49Z</time>
      </trkpt>
      <trkpt lat="42.70408" lon="1.34801">
        <ele>2377.48</ele>
        <time>2017-02-20T11:56:53Z</time>
      </trkpt>
      <trkpt lat="42.70405" lon="1.34787">
        <ele>2373.15</ele>
        <time>2017-02-20T11:56:56Z</time>
      </trkpt>
      <trkpt lat="42.70406" lon="1.34768">
        <ele>2365.94</ele>
        <time>2017-02-20T11:57:00Z</time>
      </trkpt>
      <trkpt lat="42.70408" lon="1.34736">
        <ele>2352</ele>
        <time>2017-02-20T11:57:06Z</time>
      </trkpt>
      <trkpt lat="42.7042" lon="1.34712">
        <ele>2341.43</ele>
        <time>2017-02-20T11:57:13Z</time>
      </trkpt>
      <trkpt lat="42.70444" lon="1.34715">
        <ele>2338.06</ele>
        <time>2017-02-20T11:57:48Z</time>
      </trkpt>
      <trkpt lat="42.7046" lon="1.34697">
        <ele>2326.53</ele>
        <time>2017-02-20T11:57:56Z</time>
      </trkpt>
      <trkpt lat="42.70455" lon="1.34678">
        <ele>2321.72</ele>
        <time>2017-02-20T11:58:01Z</time>
      </trkpt>
      <trkpt lat="42.70471" lon="1.3467">
        <ele>2315.95</ele>
        <time>2017-02-20T11:58:06Z</time>
      </trkpt>
      <trkpt lat="42.70468" lon="1.3465">
        <ele>2312.11</ele>
        <time>2017-02-20T11:58:10Z</time>
      </trkpt>
      <trkpt lat="42.70484" lon="1.34628">
        <ele>2303.46</ele>
        <time>2017-02-20T11:58:18Z</time>
      </trkpt>
      <trkpt lat="42.70476" lon="1.34606">
        <ele>2298.17</ele>
        <time>2017-02-20T11:58:23Z</time>
      </trkpt>
      <trkpt lat="42.7049" lon="1.34592">
        <ele>2290.48</ele>
        <time>2017-02-20T11:58:30Z</time>
      </trkpt>
      <trkpt lat="42.70483" lon="1.34585">
        <ele>2289.04</ele>
        <time>2017-02-20T11:58:42Z</time>
      </trkpt>
      <trkpt lat="42.70491" lon="1.34534">
        <ele>2276.54</ele>
        <time>2017-02-20T11:58:53Z</time>
      </trkpt>
      <trkpt lat="42.70488" lon="1.34516">
        <ele>2272.21</ele>
        <time>2017-02-20T11:59:00Z</time>
      </trkpt>
      <trkpt lat="42.70496" lon="1.34499">
        <ele>2266.45</ele>
        <time>2017-02-20T11:59:40Z</time>
      </trkpt>
      <trkpt lat="42.70506" lon="1.34505">
        <ele>2264.04</ele>
        <time>2017-02-20T11:59:58Z</time>
      </trkpt>
      <trkpt lat="42.70509" lon="1.34493">
        <ele>2258.27</ele>
        <time>2017-02-20T12:00:03Z</time>
      </trkpt>
      <trkpt lat="42.70521" lon="1.34489">
        <ele>2253.47</ele>
        <time>2017-02-20T12:00:09Z</time>
      </trkpt>
      <trkpt lat="42.70523" lon="1.34475">
        <ele>2244.33</ele>
        <time>2017-02-20T12:00:28Z</time>
      </trkpt>
      <trkpt lat="42.70529" lon="1.34476">
        <ele>2243.85</ele>
        <time>2017-02-20T12:00:31Z</time>
      </trkpt>
      <trkpt lat="42.7053" lon="1.34468">
        <ele>2239.53</ele>
        <time>2017-02-20T12:00:39Z</time>
      </trkpt>
      <trkpt lat="42.70547" lon="1.34465">
        <ele>2227.51</ele>
        <time>2017-02-20T12:00:54Z</time>
      </trkpt>
      <trkpt lat="42.70567" lon="1.3445">
        <ele>2209.73</ele>
        <time>2017-02-20T12:01:23Z</time>
      </trkpt>
      <trkpt lat="42.7058" lon="1.34452">
        <ele>2209.25</ele>
        <time>2017-02-20T12:01:30Z</time>
      </trkpt>
      <trkpt lat="42.70574" lon="1.34435">
        <ele>2203.48</ele>
        <time>2017-02-20T12:01:45Z</time>
      </trkpt>
      <trkpt lat="42.70583" lon="1.34423">
        <ele>2195.31</ele>
        <time>2017-02-20T12:01:56Z</time>
      </trkpt>
      <trkpt lat="42.70579" lon="1.34411">
        <ele>2190.98</ele>
        <time>2017-02-20T12:01:59Z</time>
      </trkpt>
      <trkpt lat="42.70582" lon="1.34409">
        <ele>2188.1</ele>
        <time>2017-02-20T12:02:00Z</time>
      </trkpt>
      <trkpt lat="42.70585" lon="1.34402">
        <ele>2184.73</ele>
        <time>2017-02-20T12:02:02Z</time>
      </trkpt>
      <trkpt lat="42.70555" lon="1.34346">
        <ele>2172.72</ele>
        <time>2017-02-20T12:02:28Z</time>
      </trkpt>
      <trkpt lat="42.70564" lon="1.34301">
        <ele>2148.68</ele>
        <time>2017-02-20T12:03:02Z</time>
      </trkpt>
      <trkpt lat="42.70556" lon="1.34263">
        <ele>2135.71</ele>
        <time>2017-02-20T12:03:07Z</time>
      </trkpt>
      <trkpt lat="42.70554" lon="1.34249">
        <ele>2129.94</ele>
        <time>2017-02-20T12:03:10Z</time>
      </trkpt>
      <trkpt lat="42.70554" lon="1.34234">
        <ele>2122.73</ele>
        <time>2017-02-20T12:03:12Z</time>
      </trkpt>
      <trkpt lat="42.70559" lon="1.34236">
        <ele>2119.36</ele>
        <time>2017-02-20T12:03:13Z</time>
      </trkpt>
      <trkpt lat="42.70596" lon="1.34248">
        <ele>2142.92</ele>
        <time>2017-02-20T12:03:42Z</time>
      </trkpt>
      <trkpt lat="42.70596" lon="1.34243">
        <ele>2115.52</ele>
        <time>2017-02-20T12:04:16Z</time>
      </trkpt>
      <trkpt lat="42.70576" lon="1.34217">
        <ele>2108.79</ele>
        <time>2017-02-20T12:04:22Z</time>
      </trkpt>
      <trkpt lat="42.70573" lon="1.34188">
        <ele>2098.21</ele>
        <time>2017-02-20T12:04:27Z</time>
      </trkpt>
      <trkpt lat="42.70522" lon="1.3412">
        <ele>2089.08</ele>
        <time>2017-02-20T12:04:42Z</time>
      </trkpt>
      <trkpt lat="42.70522" lon="1.3412">
        <ele>2088.6</ele>
        <time>2017-02-20T12:04:54Z</time>
      </trkpt>
      <trkpt lat="42.70522" lon="1.3412">
        <ele>2093.89</ele>
        <time>2017-02-20T12:04:59Z</time>
      </trkpt>
      <trkpt lat="42.70501" lon="1.34124">
        <ele>2084.76</ele>
        <time>2017-02-20T12:05:25Z</time>
      </trkpt>
      <trkpt lat="42.70501" lon="1.34074">
        <ele>2064.09</ele>
        <time>2017-02-20T12:05:38Z</time>
      </trkpt>
      <trkpt lat="42.7049" lon="1.34073">
        <ele>2062.65</ele>
        <time>2017-02-20T12:05:40Z</time>
      </trkpt>
      <trkpt lat="42.70482" lon="1.3406">
        <ele>2057.84</ele>
        <time>2017-02-20T12:05:43Z</time>
      </trkpt>
      <trkpt lat="42.70475" lon="1.34032">
        <ele>2050.15</ele>
        <time>2017-02-20T12:05:46Z</time>
      </trkpt>
      <trkpt lat="42.70435" lon="1.33959">
        <ele>2052.07</ele>
        <time>2017-02-20T12:06:25Z</time>
      </trkpt>
      <trkpt lat="42.70353" lon="1.33885">
        <ele>2032.84</ele>
        <time>2017-02-20T12:07:37Z</time>
      </trkpt>
      <trkpt lat="42.70353" lon="1.33842">
        <ele>2025.64</ele>
        <time>2017-02-20T12:07:44Z</time>
      </trkpt>
      <trkpt lat="42.70345" lon="1.33836">
        <ele>2025.15</ele>
        <time>2017-02-20T12:07:45Z</time>
      </trkpt>
      <trkpt lat="42.70334" lon="1.33806">
        <ele>2015.54</ele>
        <time>2017-02-20T12:07:51Z</time>
      </trkpt>
      <trkpt lat="42.70321" lon="1.33781">
        <ele>2007.85</ele>
        <time>2017-02-20T12:07:53Z</time>
      </trkpt>
      <trkpt lat="42.703" lon="1.33736">
        <ele>2004.97</ele>
        <time>2017-02-20T12:07:57Z</time>
      </trkpt>
      <trkpt lat="42.70184" lon="1.33675">
        <ele>2028.52</ele>
        <time>2017-02-20T12:12:17Z</time>
      </trkpt>
      <trkpt lat="42.70159" lon="1.33666">
        <ele>2012.18</ele>
        <time>2017-02-20T12:36:40Z</time>
      </trkpt>
      <trkpt lat="42.70046" lon="1.33451">
        <ele>2011.22</ele>
        <time>2017-02-20T12:40:21Z</time>
      </trkpt>
      <trkpt lat="42.70032" lon="1.33413">
        <ele>2009.77</ele>
        <time>2017-02-20T12:40:56Z</time>
      </trkpt>
      <trkpt lat="42.70028" lon="1.33401">
        <ele>2012.18</ele>
        <time>2017-02-20T12:41:13Z</time>
      </trkpt>
      <trkpt lat="42.7004" lon="1.33371">
        <ele>2015.06</ele>
        <time>2017-02-20T12:41:56Z</time>
      </trkpt>
      <trkpt lat="42.7003" lon="1.33283">
        <ele>2020.35</ele>
        <time>2017-02-20T12:43:44Z</time>
      </trkpt>
      <trkpt lat="42.70033" lon="1.33204">
        <ele>2030.92</ele>
        <time>2017-02-20T12:45:52Z</time>
      </trkpt>
      <trkpt lat="42.70032" lon="1.33193">
        <ele>2031.88</ele>
        <time>2017-02-20T12:46:06Z</time>
      </trkpt>
      <trkpt lat="42.70032" lon="1.33119">
        <ele>2034.29</ele>
        <time>2017-02-20T12:47:36Z</time>
      </trkpt>
      <trkpt lat="42.70068" lon="1.33013">
        <ele>2044.86</ele>
        <time>2017-02-20T12:50:22Z</time>
      </trkpt>
      <trkpt lat="42.7009" lon="1.32993">
        <ele>2053.99</ele>
        <time>2017-02-20T12:51:48Z</time>
      </trkpt>
      <trkpt lat="42.70114" lon="1.32962">
        <ele>2058.8</ele>
        <time>2017-02-20T12:52:48Z</time>
      </trkpt>
      <trkpt lat="42.70153" lon="1.32888">
        <ele>2063.61</ele>
        <time>2017-02-20T12:54:32Z</time>
      </trkpt>
      <trkpt lat="42.70205" lon="1.32687">
        <ele>2097.25</ele>
        <time>2017-02-20T13:00:48Z</time>
      </trkpt>
      <trkpt lat="42.70246" lon="1.3255">
        <ele>2112.15</ele>
        <time>2017-02-20T13:04:24Z</time>
      </trkpt>
      <trkpt lat="42.70317" lon="1.32314">
        <ele>2109.75</ele>
        <time>2017-02-20T13:09:38Z</time>
      </trkpt>
      <trkpt lat="42.70321" lon="1.32294">
        <ele>2110.23</ele>
        <time>2017-02-20T13:09:54Z</time>
      </trkpt>
      <trkpt lat="42.70333" lon="1.32226">
        <ele>2110.23</ele>
        <time>2017-02-20T13:11:00Z</time>
      </trkpt>
      <trkpt lat="42.70311" lon="1.32211">
        <ele>2116</ele>
        <time>2017-02-20T13:12:02Z</time>
      </trkpt>
      <trkpt lat="42.70319" lon="1.32183">
        <ele>2124.17</ele>
        <time>2017-02-20T13:13:35Z</time>
      </trkpt>
      <trkpt lat="42.70314" lon="1.32165">
        <ele>2128.02</ele>
        <time>2017-02-20T13:14:17Z</time>
      </trkpt>
      <trkpt lat="42.70283" lon="1.32178">
        <ele>2140.51</ele>
        <time>2017-02-20T13:17:01Z</time>
      </trkpt>
      <trkpt lat="42.70281" lon="1.32135">
        <ele>2147.72</ele>
        <time>2017-02-20T13:18:36Z</time>
      </trkpt>
      <trkpt lat="42.70254" lon="1.32162">
        <ele>2157.34</ele>
        <time>2017-02-20T13:20:58Z</time>
      </trkpt>
      <trkpt lat="42.70252" lon="1.32151">
        <ele>2160.22</ele>
        <time>2017-02-20T13:21:33Z</time>
      </trkpt>
      <trkpt lat="42.70254" lon="1.3211">
        <ele>2165.51</ele>
        <time>2017-02-20T13:22:57Z</time>
      </trkpt>
      <trkpt lat="42.70238" lon="1.32108">
        <ele>2172.72</ele>
        <time>2017-02-20T13:24:22Z</time>
      </trkpt>
      <trkpt lat="42.70238" lon="1.32087">
        <ele>2178</ele>
        <time>2017-02-20T13:25:26Z</time>
      </trkpt>
      <trkpt lat="42.70232" lon="1.32085">
        <ele>2178.97</ele>
        <time>2017-02-20T13:25:45Z</time>
      </trkpt>
      <trkpt lat="42.70206" lon="1.32068">
        <ele>2193.39</ele>
        <time>2017-02-20T13:28:25Z</time>
      </trkpt>
      <trkpt lat="42.70202" lon="1.32054">
        <ele>2196.75</ele>
        <time>2017-02-20T13:29:07Z</time>
      </trkpt>
      <trkpt lat="42.70195" lon="1.32038">
        <ele>2202.52</ele>
        <time>2017-02-20T13:30:20Z</time>
      </trkpt>
      <trkpt lat="42.70179" lon="1.32018">
        <ele>2208.77</ele>
        <time>2017-02-20T13:31:13Z</time>
      </trkpt>
      <trkpt lat="42.70167" lon="1.31971">
        <ele>2213.57</ele>
        <time>2017-02-20T13:32:36Z</time>
      </trkpt>
      <trkpt lat="42.70165" lon="1.31912">
        <ele>2214.05</ele>
        <time>2017-02-20T13:42:20Z</time>
      </trkpt>
      <trkpt lat="42.70182" lon="1.31882">
        <ele>2206.84</ele>
        <time>2017-02-20T13:42:36Z</time>
      </trkpt>
      <trkpt lat="42.70187" lon="1.31868">
        <ele>2200.59</ele>
        <time>2017-02-20T13:43:05Z</time>
      </trkpt>
      <trkpt lat="42.702" lon="1.31838">
        <ele>2173.2</ele>
        <time>2017-02-20T13:46:21Z</time>
      </trkpt>
      <trkpt lat="42.70204" lon="1.3184">
        <ele>2173.2</ele>
        <time>2017-02-20T13:46:41Z</time>
      </trkpt>
      <trkpt lat="42.70206" lon="1.31836">
        <ele>2170.79</ele>
        <time>2017-02-20T13:46:45Z</time>
      </trkpt>
      <trkpt lat="42.70214" lon="1.31817">
        <ele>2159.26</ele>
        <time>2017-02-20T13:47:18Z</time>
      </trkpt>
      <trkpt lat="42.70224" lon="1.31797">
        <ele>2150.61</ele>
        <time>2017-02-20T13:47:25Z</time>
      </trkpt>
      <trkpt lat="42.7024" lon="1.31777">
        <ele>2144.36</ele>
        <time>2017-02-20T13:47:30Z</time>
      </trkpt>
      <trkpt lat="42.70248" lon="1.31752">
        <ele>2141.47</ele>
        <time>2017-02-20T13:47:34Z</time>
      </trkpt>
      <trkpt lat="42.70273" lon="1.31657">
        <ele>2130.42</ele>
        <time>2017-02-20T13:48:15Z</time>
      </trkpt>
      <trkpt lat="42.70276" lon="1.31637">
        <ele>2126.09</ele>
        <time>2017-02-20T13:48:39Z</time>
      </trkpt>
      <trkpt lat="42.70279" lon="1.31584">
        <ele>2115.52</ele>
        <time>2017-02-20T13:48:46Z</time>
      </trkpt>
      <trkpt lat="42.70312" lon="1.31575">
        <ele>2120.81</ele>
        <time>2017-02-20T14:28:11Z</time>
      </trkpt>
      <trkpt lat="42.70313" lon="1.31574">
        <ele>2123.21</ele>
        <time>2017-02-20T14:28:28Z</time>
      </trkpt>
      <trkpt lat="42.70316" lon="1.31559">
        <ele>2126.09</ele>
        <time>2017-02-20T14:29:05Z</time>
      </trkpt>
      <trkpt lat="42.70333" lon="1.31535">
        <ele>2133.3</ele>
        <time>2017-02-20T14:30:07Z</time>
      </trkpt>
      <trkpt lat="42.70346" lon="1.31551">
        <ele>2140.51</ele>
        <time>2017-02-20T14:32:02Z</time>
      </trkpt>
      <trkpt lat="42.70364" lon="1.31518">
        <ele>2149.16</ele>
        <time>2017-02-20T14:33:39Z</time>
      </trkpt>
      <trkpt lat="42.70386" lon="1.31497">
        <ele>2154.45</ele>
        <time>2017-02-20T14:34:53Z</time>
      </trkpt>
      <trkpt lat="42.70404" lon="1.31452">
        <ele>2159.74</ele>
        <time>2017-02-20T14:36:07Z</time>
      </trkpt>
      <trkpt lat="42.70413" lon="1.3135">
        <ele>2174.16</ele>
        <time>2017-02-20T14:38:55Z</time>
      </trkpt>
      <trkpt lat="42.7038" lon="1.31238">
        <ele>2190.02</ele>
        <time>2017-02-20T14:42:13Z</time>
      </trkpt>
      <trkpt lat="42.70377" lon="1.31214">
        <ele>2194.35</ele>
        <time>2017-02-20T14:43:34Z</time>
      </trkpt>
      <trkpt lat="42.70389" lon="1.31102">
        <ele>2195.79</ele>
        <time>2017-02-20T14:45:45Z</time>
      </trkpt>
      <trkpt lat="42.70388" lon="1.30985">
        <ele>2195.31</ele>
        <time>2017-02-20T14:47:58Z</time>
      </trkpt>
      <trkpt lat="42.7039" lon="1.30982">
        <ele>2193.39</ele>
        <time>2017-02-20T14:48:14Z</time>
      </trkpt>
      <trkpt lat="42.7037" lon="1.30873">
        <ele>2199.63</ele>
        <time>2017-02-20T14:56:26Z</time>
      </trkpt>
      <trkpt lat="42.70389" lon="1.30658">
        <ele>2231.84</ele>
        <time>2017-02-20T15:04:10Z</time>
      </trkpt>
      <trkpt lat="42.70386" lon="1.30683">
        <ele>2230.4</ele>
        <time>2017-02-20T15:05:16Z</time>
      </trkpt>
      <trkpt lat="42.70382" lon="1.30638">
        <ele>2231.84</ele>
        <time>2017-02-20T15:06:09Z</time>
      </trkpt>
      <trkpt lat="42.70382" lon="1.30635">
        <ele>2230.88</ele>
        <time>2017-02-20T15:06:11Z</time>
      </trkpt>
    </trkseg>
  </trk>
</gpx>